Monterrey Airport, Mexico

1:59 AM EST on September 30, 2016 (GMT -0500)
Del Norte International

Weather History for MMAN - March, 2013

Change the Weather History Date:

Tuesday, March 5, 2013

  Actual Average Record
Temperature  
Mean Temperature 68 °F -  
Max Temperature 78 °F 80 °F 98 °F (1999)
Min Temperature 55 °F 56 °F 39 °F (2002)
Cooling Degree Days 2    
Growing Degree Days 18 (Base 50)    
Moisture  
Dew Point 29 °F    
Average Humidity 25    
Maximum Humidity 40    
Minimum Humidity 11    
Precipitation  
Precipitation 0.00 in - - ()
Sea Level Pressure  
Sea Level Pressure 30.18 in    
Wind  
Wind Speed 10 mph ()    
Max Wind Speed 21 mph    
Max Gust Speed -    
Visibility 8.1 miles    
Events      
Averages and records for this station are not official NWS values.
T = Trace of Precipitation, MM = Missing Value Source: Averaged Metar Reports

Daily Weather History Graph

Daily Weather History Graph

Search for Another Location

Airport or City:

Trip Planner

Search our weather history database for the weather conditions in past years. The results will help you decide how hot, cold, wet, or windy it might be!

Date:

Astronomy

Mar. 05, 2013 Rise Set
Actual Time 7:00 AM CST 6:44 PM CST
Civil Twilight 6:37 AM CST 7:08 PM CST
Nautical Twilight 6:10 AM CST 7:34 PM CST
Astronomical Twilight 5:43 AM CST 8:01 PM CST
Moon 1:49 AM CST (3/5) 12:50 PM CST (3/5)
Length of Visible Light 12h 30m
Length of Day
11h 44m
Last Quarter, 40% of the Moon is Illuminated
Mar 5
Last Quarter
Mar 11
New
Mar 19
First Quarter
Mar 27
Full
Apr 2
Last Quarter

Hourly Weather History & Observations

Time (CST) Temp. Dew Point Humidity Pressure Visibility Wind Dir Wind Speed Gust Speed Precip Events Conditions
5:51 AM 68.0 °F 32.0 °F 26% 29.79 in 7.0 mi North - - N/A   Clear
6:40 AM 69.8 °F 12.2 °F 11% 29.96 in 12.0 mi NW 12.7 mph - N/A   Partly Cloudy
7:42 AM 69.8 °F 23.0 °F 17% 30.02 in 12.0 mi North - - N/A   Scattered Clouds
8:41 AM 78.8 °F 21.2 °F 12% 29.97 in 10.0 mi NNW 19.6 mph - N/A   Mostly Cloudy
9:40 AM 73.4 °F 30.2 °F 20% 30.17 in 4.0 mi North - - N/A   Widespread Dust
10:40 AM 68.0 °F 42.8 °F 40% 30.21 in 4.0 mi North - - N/A   Widespread Dust
11:44 AM 69.8 °F 35.6 °F 28% 30.16 in 4.0 mi North - - N/A   Widespread Dust
12:40 PM 68.0 °F 37.4 °F 33% 30.26 in 4.0 mi North - - N/A   Widespread Dust
1:40 PM 71.6 °F 39.2 °F 31% 30.25 in 6.0 mi North - - N/A   Widespread Dust
2:40 PM 73.4 °F 35.6 °F 25% 30.17 in 6.0 mi North - - N/A   Mostly Cloudy
3:40 PM 73.4 °F 35.6 °F 25% 30.24 in 6.0 mi North - - N/A   Mostly Cloudy
4:40 PM 73.4 °F 35.6 °F 25% 30.24 in 6.0 mi North - - N/A   Mostly Cloudy
5:40 PM 68.0 °F 26.6 °F 21% 30.16 in 8.0 mi NNE 20.7 mph - N/A   Mostly Cloudy
6:40 PM 66.2 °F 26.6 °F 23% 30.29 in 8.0 mi North 13.8 mph - N/A   Mostly Cloudy
7:40 PM 64.4 °F 24.8 °F 22% 30.31 in 8.0 mi North 12.7 mph - N/A   Mostly Cloudy
8:40 PM 62.6 °F 24.8 °F 24% 30.22 in 10.0 mi North 9.2 mph - N/A   Scattered Clouds
9:40 PM 57.2 °F 24.8 °F 29% 30.35 in 12.0 mi Calm Calm - N/A   Mostly Cloudy
10:40 PM 57.2 °F 24.8 °F 29% 30.36 in 12.0 mi WNW 4.6 mph - N/A   Clear
11:40 PM 55.4 °F 24.8 °F 31% 30.29 in 15.0 mi NNW 6.9 mph - N/A   Clear